Location: Falniów
(50.3639°N, 19.9642°E)
Time: 13:09:52
(UTC+00:00)

Cosmos 2082 Rocket - Pass Details

Date: 23 April 2026
Orbit: 831 x 853 km, 71.0° (Epoch: 19 May)

Event Time Altitude Azimuth Distance (km) Brightness Sun altitude
Exits shadow 02:26:39 - 281° (W) 3,236 4.8 -9.9°
Reaches altitude 10° 02:29:48 10° 303° (WNW) 2,491 4.4 -9.5°
Maximum altitude 02:32:44 14° 334° (NNW) 2,212 4.5 -9.1°
Drops below altitude 10° 02:35:41 10° 5° (N) 2,494 5.2 -8.7°
Sets 02:39:29 0° 30° (NNE) 3,430 6.6 -8.2°
